Location: Okie-Tex Star Party
(36.8978°N, 102.9520°W)
Time: 07:16:19
(UTC-05:00)

Amateur Radio Satellites - All Passes

Search period start: 25 June 2016 06:46
Search period end: 26 June 2016 06:46
Location: Okie-Tex Star Party, 36.8978°N, 102.9520°W

Satellite Date Start Highest point End Downlink Frequencies (MHz)
Time Altitude Azimuth
CUTE-I 25 Jun 07:01:00 07:04:07 15° 92° (E) 07:07:13 437.470
STRAND 1 25 Jun 07:02:28 07:05:12 15° 63° (ENE) 07:07:57 437.568
CUBESAT XI-V 25 Jun 07:15:46 07:19:54 30° 264° (W) 07:24:02 437.345
NOAA 18 25 Jun 07:26:21 07:31:14 31° 97° (E) 07:36:05 137.9125
GOMX 1 25 Jun 07:35:38 07:38:31 18° 95° (E) 07:41:28 467.674
GONETS M04 25 Jun 07:36:30 07:45:14 83° 265° (W) 07:54:00
AIST 2 25 Jun 07:40:22 07:44:09 35° 305° (NW) 07:47:59 435.215
NOAA 15 25 Jun 07:40:40 07:45:48 54° 101° (E) 07:50:55 137.62
AO-7 25 Jun 07:42:20 07:48:09 21° 305° (NW) 07:53:59 29.400- 29.500
HORYU 2 25 Jun 07:57:13 08:00:08 17° 294° (WNW) 08:03:04 437.375
LilacSat-2 25 Jun 07:59:21 08:03:12 62° 101° (E) 08:07:03 437.200
DANDE 25 Jun 08:01:58 08:05:47 14° 80° (E) 08:09:36 436.750
Cubesat XI-IV 25 Jun 08:03:29 08:08:52 64° 102° (ESE) 08:14:11 437.490
PHONESAT 2.4 25 Jun 08:10:31 08:11:59 13° 144° (SE) 08:13:28 2401.200-2431.200
CUSAT 1 25 Jun 08:12:17 08:19:14 34° 90° (E) 08:25:33 437.405
AO-85 25 Jun 08:15:45 08:20:00 39° 54° (NE) 08:23:53 145.980
Cosmos 2499 25 Jun 08:17:24 08:26:08 69° 268° (W) 08:34:21 435.465 / 435.565
BRITE-PL 25 Jun 08:19:16 08:23:20 53° 285° (WNW) 08:27:23 437.365/2234.400
STRAND 1 25 Jun 08:38:43 08:43:47 64° 258° (WSW) 08:48:55 437.568
CUTE-I 25 Jun 08:39:13 08:44:30 59° 287° (WNW) 08:49:46 437.470
CINEMA 3 25 Jun 08:42:49 08:45:08 14° 93° (E) 08:47:29 145.822/145.860
PRISM 25 Jun 08:49:59 08:53:18 23° 69° (ENE) 08:56:36 437.425
DOVE 4 25 Jun 08:54:25 08:58:40 67° 101° (E) 09:03:09 437.250
CANX-2 25 Jun 09:05:19 09:08:45 23° 95° (E) 09:12:09 2200.000
NOAA 18 25 Jun 09:06:56 09:11:48 32° 292° (WNW) 09:16:39 137.9125
GOMX 1 25 Jun 09:12:59 09:16:40 31° 288° (WNW) 09:20:27 467.674
HO-68 25 Jun 09:19:33 09:26:11 39° 98° (E) 09:32:48 435.675
NOAA 15 25 Jun 09:21:44 09:25:06 18° 296° (WNW) 09:28:28 137.62
COMPASS 1 25 Jun 09:22:58 09:25:27 15° 93° (E) 09:27:53 437.405
CUTE 1.7 + AOD 2 25 Jun 09:25:41 09:29:38 34° 97° (E) 09:33:31 437.475
GONETS M04 25 Jun 09:36:48 09:40:37 14° 283° (WNW) 09:44:27
SEEDS 25 Jun 09:36:49 09:40:39 32° 97° (E) 09:44:27 437.485
DANDE 25 Jun 09:39:10 09:47:26 76° 95° (E) 09:55:37 436.750
M-CUBED/EXP-1 PRIME 25 Jun 09:43:25 09:43:46 10° 99° (E) 09:44:07 437.505
PHONESAT 2.4 25 Jun 09:45:11 09:48:14 72° 158° (SSE) 09:51:18 2401.200-2431.200
Cubesat XI-IV 25 Jun 09:45:14 09:48:20 16° 297° (WNW) 09:51:26 437.490
CUSAT 1 25 Jun 09:53:30 10:01:07 47° 283° (WNW) 10:07:57 437.405
AO-85 25 Jun 09:57:16 10:00:01 17° 252° (WSW) 10:02:38 145.980
UWE-3 25 Jun 10:00:43 10:04:09 21° 94° (E) 10:07:37 435.000/436.395/437.385
Oscar 11 25 Jun 10:06:36 10:09:11 15° 93° (E) 10:11:46 145.826/435.025
ISS 25 Jun 10:08:30 10:11:07 23° 131° (SE) 10:13:45 145.825
FUNcube-1 25 Jun 10:08:50 10:11:29 15° 93° (E) 10:14:07 145.935
Cosmos 2499 25 Jun 10:16:12 10:17:24 10° 286° (WNW) 10:18:36 435.465 / 435.565
CINEMA 3 25 Jun 10:18:06 10:22:27 50° 286° (WNW) 10:26:59 145.822/145.860
PRISM 25 Jun 10:25:03 10:28:29 25° 263° (W) 10:31:55 437.425
AAUSAT CUBESAT 2 25 Jun 10:26:41 10:30:52 72° 101° (E) 10:35:00 437.432
AUBIESAT-1 25 Jun 10:38:44 10:42:26 41° 105° (ESE) 10:46:24 437.475
CUBEBUG 2 25 Jun 10:40:40 10:45:16 86° 105° (ESE) 10:49:57 437.445
CANX-2 25 Jun 10:40:57 10:44:32 26° 290° (WNW) 10:48:05 2200.000
ANTELSAT 25 Jun 10:44:55 10:48:29 27° 70° (ENE) 10:52:07 437.575/2403.000
COMPASS 1 25 Jun 10:57:15 11:01:08 37° 287° (WNW) 11:04:58 437.405
CUTE 1.7 + AOD 2 25 Jun 11:02:17 11:05:11 18° 292° (WNW) 11:08:04 437.475
HO-68 25 Jun 11:07:19 11:13:47 38° 295° (WNW) 11:20:16 435.675
DELFI C3 25 Jun 11:10:12 11:13:54 35° 98° (E) 11:17:33 145.870
SEEDS 25 Jun 11:13:09 11:16:05 18° 292° (WNW) 11:19:01 437.485
M-CUBED/EXP-1 PRIME 25 Jun 11:14:43 11:18:26 54° 290° (WNW) 11:22:27 437.505
PHONESAT 2.4 25 Jun 11:22:02 11:24:59 42° 354° (N) 11:27:56 2401.200-2431.200
QB50P2 25 Jun 11:23:29 11:25:05 12° 65° (ENE) 11:26:41 145.880/145.840
ZACube-1 25 Jun 11:23:42 11:28:13 71° 284° (WNW) 11:32:46 437.345
DANDE 25 Jun 11:24:29 11:30:53 24° 292° (WNW) 11:37:09 436.750
POLYITAN 1 25 Jun 11:26:00 11:27:41 12° 65° (ENE) 11:29:22 437.675
DUCHIFAT 1 25 Jun 11:30:56 11:32:33 12° 65° (ENE) 11:34:11 145.980
HUMSAT D 25 Jun 11:34:07 11:37:59 31° 97° (E) 11:41:50 437.325/437.525
UWE-3 25 Jun 11:36:31 11:40:38 34° 288° (WNW) 11:44:47 435.000/436.395/437.385
TIGRISAT 25 Jun 11:36:53 11:41:08 79° 258° (WSW) 11:45:29 435.000
UNISAT 6 25 Jun 11:40:46 11:44:59 66° 259° (WSW) 11:49:19 437.425
Oscar 11 25 Jun 11:41:23 11:45:28 40° 287° (WNW) 11:49:31 145.826/435.025
FUNcube-1 25 Jun 11:43:34 11:47:53 45° 286° (WNW) 11:52:13 145.935
ISS 25 Jun 11:44:30 11:47:27 31° 326° (NNW) 11:50:25 145.825
ESTCUBE 1 25 Jun 12:03:31 12:04:23 10° 91° (E) 12:05:15 437.505/2401.250
AUBIESAT-1 25 Jun 12:14:32 12:16:39 14° 296° (WNW) 12:18:50 437.475
ANTELSAT 25 Jun 12:21:47 12:25:09 22° 265° (W) 12:28:35 437.575/2403.000
AISAT 25 Jun 12:22:46 12:23:51 11° 91° (E) 12:24:56 437.250
RS-15 25 Jun 12:27:52 12:37:55 39° 106° (ESE) 12:48:25 29.354- 29.394
BUGSAT 1 25 Jun 12:40:08 12:43:45 33° 72° (ENE) 12:47:22 437.445
NANOSAT C BR1 25 Jun 12:41:10 12:45:20 90° 63° (ENE) 12:49:32 145.865
QB50P1 25 Jun 12:41:59 12:46:09 84° 257° (WSW) 12:50:22 145.935-145.965
UKube-1 25 Jun 12:43:30 12:44:10 10° 92° (E) 12:44:51 .
POPSAT HIP 1 25 Jun 12:44:50 12:49:01 79° 259° (W) 12:53:13 437.405
YUBILEINY 25 Jun 12:45:25 12:50:20 17° 78° (ENE) 12:55:15 435.215
DELFI C3 25 Jun 12:46:06 12:48:26 15° 293° (WNW) 12:50:45 145.870
50 SAT 25 Jun 12:48:49 12:51:44 22° 96° (E) 12:54:36 437.505
DX 1 25 Jun 12:54:12 12:57:17 19° 95° (E) 13:00:22 434.975-435.025
QB50P2 25 Jun 12:56:19 13:00:24 52° 260° (W) 13:04:31 145.880/145.840
Cosmos 2491 25 Jun 12:57:37 13:06:01 50° 77° (ENE) 13:14:22 435.465 / 435.565
PHONESAT 2.4 25 Jun 12:58:52 13:01:53 51° 11° (NNE) 13:04:55 2401.200-2431.200
POLYITAN 1 25 Jun 12:58:57 13:03:01 50° 260° (W) 13:07:07 437.675
PCSat 25 Jun 13:01:25 13:06:35 43° 58° (ENE) 13:11:44 145.827
JAS-2 25 Jun 13:03:03 13:10:18 45° 70° (ENE) 13:17:04 435.910
DUCHIFAT 1 25 Jun 13:03:44 13:07:46 50° 260° (W) 13:11:50 145.980
HUMSAT D 25 Jun 13:10:14 13:13:22 20° 292° (WNW) 13:16:30 437.325/437.525
VELOX 1 25 Jun 13:16:00 13:20:12 44° 99° (E) 13:24:23 145.980
CUBEBUG 1 25 Jun 13:17:39 13:21:52 52° 100° (E) 13:26:04 437.445
O/OREOS (USA 219) 25 Jun 13:27:28 13:30:02 15° 57° (ENE) 13:32:36 437.305
ESTCUBE 1 25 Jun 13:37:06 13:41:34 61° 285° (WNW) 13:45:58 437.505/2401.250
BEESAT 3 25 Jun 13:42:43 13:46:41 75° 60° (ENE) 13:50:37 437.485
AISAT 25 Jun 13:56:19 14:00:38 57° 286° (WNW) 14:04:56 437.250
Gurwin Techsat 1B 25 Jun 13:59:45 14:03:16 18° 64° (ENE) 14:06:47 435.225
Oscar 19 25 Jun 14:10:00 14:15:00 52° 73° (ENE) 14:19:59 437.125/150
BEESAT 2 25 Jun 14:13:19 14:17:19 89° 55° (NE) 14:21:17 435.950
Cosmos 2504 25 Jun 14:14:14 14:19:22 19° 79° (ENE) 14:24:42 435.465 / 435.565
UKube-1 25 Jun 14:16:18 14:20:32 58° 286° (WNW) 14:24:45 .
BUGSAT 1 25 Jun 14:16:43 14:19:12 16° 266° (W) 14:21:41 437.445
50 SAT 25 Jun 14:22:31 14:25:17 20° 290° (WNW) 14:28:01 437.505
TISAT 1 25 Jun 14:23:17 14:26:49 26° 96° (E) 14:30:20 437.305
SPROUT 25 Jun 14:24:48 14:29:03 66° 285° (WNW) 14:33:18 437.525
ITAMSAT 1 25 Jun 14:28:26 14:30:06 11° 61° (ENE) 14:31:46 435.822/435.867
DX 1 25 Jun 14:29:39 14:33:31 32° 289° (WNW) 14:37:23 434.975-435.025
PHONESAT 2.4 25 Jun 14:35:34 14:38:29 40° 207° (SSW) 14:41:25 2401.200-2431.200
YUBILEINY 25 Jun 14:37:10 14:45:52 86° 277° (W) 14:54:40 435.215
RS-15 25 Jun 14:38:37 14:49:47 58° 307° (NW) 15:01:39 29.354- 29.394
PCSat 25 Jun 14:45:30 14:49:40 23° 254° (WSW) 14:53:48 145.827
JAS-2 25 Jun 14:48:17 14:55:15 35° 263° (W) 15:01:52 435.910
VELOX 1 25 Jun 14:53:47 14:56:16 15° 294° (WNW) 14:58:46 145.980
Cosmos 2491 25 Jun 14:55:04 15:02:26 32° 275° (W) 15:09:48 435.465 / 435.565
AO-7 25 Jun 14:55:17 15:00:41 19° 54° (NE) 15:06:05 29.400- 29.500
CUBEBUG 1 25 Jun 14:55:48 14:57:41 13° 295° (WNW) 14:59:33 437.445
O/OREOS (USA 219) 25 Jun 15:05:23 15:09:42 49° 254° (WSW) 15:14:02 437.305
ITUPSAT 1 25 Jun 15:08:27 15:11:11 15° 93° (E) 15:13:53 437.325
BEESAT 25 Jun 15:09:40 15:12:34 16° 93° (E) 15:15:26 436.000
Gurwin Techsat 1B 25 Jun 15:37:35 15:42:45 53° 260° (W) 15:47:58 435.225
Oscar 19 25 Jun 15:51:26 15:54:35 16° 267° (W) 15:57:44 437.125/150
TISAT 1 25 Jun 15:59:02 16:02:19 23° 291° (WNW) 16:05:37 437.305
AIST 2 25 Jun 16:03:19 16:07:28 71° 59° (ENE) 16:11:36 435.215
ITAMSAT 1 25 Jun 16:03:36 16:08:48 83° 257° (WSW) 16:14:03 435.822/435.867
Cosmos 2504 25 Jun 16:03:40 16:11:35 77° 278° (W) 16:20:10 435.465 / 435.565
SWISSCUBE 25 Jun 16:20:04 16:24:53 80° 284° (WNW) 16:29:40 437.505
ISS 25 Jun 16:38:03 16:40:12 16° 26° (NNE) 16:42:22 145.825
YUBILEINY 25 Jun 16:39:10 16:43:58 16° 296° (WNW) 16:48:49 435.215
AO-7 25 Jun 16:43:59 16:52:19 90° 72° (ENE) 17:00:44 29.400- 29.500
ITUPSAT 1 25 Jun 16:44:36 16:49:16 50° 287° (WNW) 16:53:53 437.325
BEESAT 25 Jun 16:45:58 16:50:33 47° 288° (WNW) 16:55:08 436.000
KKS-1 25 Jun 16:54:33 16:58:06 23° 96° (E) 17:01:36 437.445
SO-50 25 Jun 16:56:58 17:01:06 28° 112° (ESE) 17:05:15 436.795
RS-15 25 Jun 16:57:28 17:05:44 21° 337° (NNW) 17:14:17 29.354- 29.394
HORYU 2 25 Jun 17:15:42 17:19:29 28° 70° (ENE) 17:23:16 437.375
AIST 1 25 Jun 17:34:49 17:36:52 13° 86° (E) 17:38:54
STARS 25 Jun 17:35:50 17:39:49 32° 98° (E) 17:43:46 437.465
BRITE-PL 25 Jun 17:51:40 17:54:01 13° 66° (ENE) 17:56:16 437.365/2234.400
MOZHAYETS 4 25 Jun 17:55:35 18:00:14 79° 283° (WNW) 18:04:51
Cosmos 2504 25 Jun 18:02:59 18:06:35 13° 299° (WNW) 18:10:17 435.465 / 435.565
ISS 25 Jun 18:13:42 18:16:57 67° 223° (SW) 18:20:10 145.825
CUTE-I 25 Jun 18:20:23 18:24:21 22° 65° (ENE) 18:28:19 437.470
JUGNU 25 Jun 18:27:08 18:29:59 14° 174° (S) 18:32:50 437.505
KKS-1 25 Jun 18:30:48 18:34:36 28° 290° (WNW) 18:38:24 437.445
SO-50 25 Jun 18:37:03 18:41:28 33° 308° (NW) 18:45:53 436.795
LilacSat-2 25 Jun 18:39:47 18:42:41 21° 70° (ENE) 18:45:35 437.200
GONETS M04 25 Jun 18:40:42 18:46:59 23° 81° (E) 18:53:14
AO-7 25 Jun 18:41:19 18:46:00 16° 269° (W) 18:50:42 29.400- 29.500
GOMX 1 25 Jun 18:41:57 18:45:03 18° 69° (ENE) 18:48:02 467.674
NOAA 18 25 Jun 18:50:18 18:55:30 47° 70° (ENE) 19:00:44 137.9125
HORYU 2 25 Jun 18:52:30 18:55:59 23° 264° (W) 18:59:30 437.375
NOAA 15 25 Jun 18:58:18 19:03:34 70° 74° (ENE) 19:08:51 137.62
Cosmos 2499 25 Jun 19:00:27 19:05:44 19° 79° (ENE) 19:11:10 435.465 / 435.565
AIST 1 25 Jun 19:09:54 19:14:02 42° 280° (W) 19:18:09
STARS 25 Jun 19:12:43 19:15:56 20° 292° (WNW) 19:19:08 437.465
CUBESAT XI-V 25 Jun 19:13:54 19:18:32 81° 101° (E) 19:23:08 437.345
RS-15 25 Jun 19:17:32 19:25:06 18° 14° (NNE) 19:32:44 29.354- 29.394
Cubesat XI-IV 25 Jun 19:23:09 19:28:29 83° 75° (ENE) 19:33:52 437.490
BRITE-PL 25 Jun 19:26:47 19:32:02 67° 259° (W) 19:36:54 437.365/2234.400
SRMSAT 25 Jun 19:37:16 19:38:08 10° 168° (SSE) 19:38:59 437.500
HO-68 25 Jun 19:46:54 19:52:17 24° 60° (ENE) 19:57:40 435.675
CANX-2 25 Jun 19:57:13 19:59:16 13° 66° (ENE) 20:01:19 2200.000
DOVE 4 25 Jun 19:57:48 20:02:06 50° 75° (ENE) 20:06:13 437.250
CUTE-I 25 Jun 19:58:58 20:04:02 44° 261° (W) 20:09:10 437.470
LilacSat-2 25 Jun 20:13:57 20:16:52 21° 265° (W) 20:19:49 437.200
JUGNU 25 Jun 20:15:11 20:18:11 14° 185° (S) 20:21:10 437.505
CUTE 1.7 + AOD 2 25 Jun 20:16:46 20:19:48 19° 68° (ENE) 20:22:51 437.475
GOMX 1 25 Jun 20:18:22 20:22:53 40° 261° (W) 20:27:08 467.674
DANDE 25 Jun 20:25:09 20:30:02 38° 73° (ENE) 20:33:43 436.750
SEEDS 25 Jun 20:27:03 20:29:55 18° 68° (ENE) 20:32:47 437.485
NOAA 18 25 Jun 20:32:25 20:36:21 20° 266° (W) 20:40:18 137.9125
CUSAT 1 25 Jun 20:33:44 20:37:27 49° 266° (W) 20:40:23 437.405
GONETS M04 25 Jun 20:34:17 20:42:56 68° 279° (W) 20:51:37
NOAA 15 25 Jun 20:41:36 20:43:47 12° 269° (W) 20:45:59 137.62
Cosmos 2499 25 Jun 20:49:32 20:57:39 79° 278° (W) 21:06:24 435.465 / 435.565
STRAND 1 25 Jun 20:51:32 20:56:35 53° 100° (E) 21:01:35 437.568
UWE-3 25 Jun 20:57:32 20:59:02 12° 65° (ENE) 21:00:32 435.000/436.395/437.385
AAUSAT CUBESAT 2 25 Jun 21:14:36 21:18:23 34° 72° (ENE) 21:22:11 437.432
CINEMA 3 25 Jun 21:17:34 21:21:43 71° 259° (WSW) 21:25:53 145.822/145.860
SRMSAT 25 Jun 21:23:23 21:26:28 14° 178° (S) 21:29:32 437.500
AUBIESAT-1 25 Jun 21:23:47 21:26:42 30° 68° (ENE) 21:29:38 437.475
CANX-2 25 Jun 21:30:32 21:34:40 48° 261° (W) 21:38:50 2200.000
RS-15 25 Jun 21:30:42 21:42:17 43° 46° (NE) 21:53:45 29.354- 29.394
HO-68 25 Jun 21:32:19 21:39:23 64° 257° (WSW) 21:46:31 435.675
CUBEBUG 2 25 Jun 21:36:42 21:40:42 50° 74° (ENE) 21:44:47 437.445
DOVE 4 25 Jun 21:38:22 21:40:00 12° 267° (W) 21:41:38 437.250
COMPASS 1 25 Jun 21:44:56 21:49:08 79° 258° (WSW) 21:53:23 437.405
CUTE 1.7 + AOD 2 25 Jun 21:51:35 21:55:24 32° 263° (W) 21:59:15 437.475
DELFI C3 25 Jun 21:54:52 21:57:23 16° 68° (ENE) 21:59:56 145.870
M-CUBED/EXP-1 PRIME 25 Jun 21:59:57 22:03:13 56° 255° (WSW) 22:06:26 437.505
SEEDS 25 Jun 22:01:29 22:05:20 34° 263° (W) 22:09:13 437.485
PRISM 25 Jun 22:08:04 22:12:01 49° 100° (E) 22:15:58 437.425
DANDE 25 Jun 22:09:33 22:12:02 14° 280° (W) 22:14:13 436.750
ZACube-1 25 Jun 22:17:07 22:21:13 66° 76° (ENE) 22:25:27 437.345
HUMSAT D 25 Jun 22:24:08 22:26:47 17° 67° (ENE) 22:29:28 437.325/437.525
AO-85 25 Jun 22:27:04 22:31:36 28° 111° (ESE) 22:36:05 145.980
UWE-3 25 Jun 22:30:56 22:34:59 52° 260° (W) 22:39:07 435.000/436.395/437.385
STRAND 1 25 Jun 22:31:59 22:35:17 17° 296° (WNW) 22:38:35 437.568
Oscar 11 25 Jun 22:33:11 22:37:30 72° 259° (W) 22:41:51 145.826/435.025
FUNcube-1 25 Jun 22:36:29 22:40:37 77° 258° (WSW) 22:44:52 145.935
GONETS M04 25 Jun 22:39:23 22:41:31 11° 300° (WNW) 22:43:40
Cosmos 2499 25 Jun 22:48:13 22:52:20 14° 298° (WNW) 22:56:34 435.465 / 435.565
AAUSAT CUBESAT 2 25 Jun 22:51:12 22:53:56 17° 267° (W) 22:56:41 437.432
AUBIESAT-1 25 Jun 23:00:15 23:01:19 11° 261° (W) 23:02:22 437.475
SRMSAT 25 Jun 23:12:24 23:14:47 12° 188° (S) 23:17:11 437.500
CUBEBUG 2 25 Jun 23:16:38 23:17:39 11° 269° (W) 23:18:39 437.445
DELFI C3 25 Jun 23:28:17 23:31:56 33° 262° (W) 23:35:39 145.870
TIGRISAT 25 Jun 23:30:47 23:34:40 26° 96° (E) 23:38:34 435.000
UNISAT 6 25 Jun 23:34:39 23:38:45 30° 97° (E) 23:42:52 437.425
RS-15 25 Jun 23:43:17 23:55:17 61° 248° (WSW) 00:07:06 29.354- 29.394
PRISM 25 Jun 23:45:19 23:46:52 12° 295° (WNW) 23:48:26 437.425
DX 1 25 Jun 23:48:43 23:50:47 13° 65° (ENE) 23:52:52 434.975-435.025
HUMSAT D 25 Jun 23:58:19 00:02:06 35° 263° (W) 00:05:58 437.325/437.525
AO-85 26 Jun 00:06:52 00:11:57 40° 306° (NW) 00:16:54 145.980
VELOX 1 26 Jun 00:11:12 00:15:02 30° 71° (ENE) 00:18:54 145.980
CUBEBUG 1 26 Jun 00:11:25 00:15:18 32° 71° (ENE) 00:19:10 437.445
ANTELSAT 26 Jun 00:14:10 00:18:50 84° 104° (ESE) 00:23:31 437.575/2403.000
NANOSAT C BR1 26 Jun 00:28:52 00:31:38 17° 94° (E) 00:34:24 145.865
QB50P1 26 Jun 00:29:51 00:32:50 18° 94° (E) 00:35:48 145.935-145.965
POPSAT HIP 1 26 Jun 00:32:39 00:35:45 19° 95° (E) 00:38:50 437.405
ESTCUBE 1 26 Jun 00:33:51 00:38:24 90° 337° (NNW) 00:42:58 437.505/2401.250
QB50P2 26 Jun 00:43:40 00:47:22 28° 97° (E) 00:51:03 145.880/145.840
POLYITAN 1 26 Jun 00:46:16 00:50:00 29° 97° (E) 00:53:43 437.675
DUCHIFAT 1 26 Jun 00:50:15 00:53:55 28° 97° (E) 00:57:33 145.980
YUBILEINY 26 Jun 00:50:25 00:58:44 43° 76° (ENE) 01:06:59 435.215
AISAT 26 Jun 00:50:59 00:55:24 88° 251° (WSW) 00:59:50 437.250
50 SAT 26 Jun 00:56:59 01:00:38 64° 259° (W) 01:04:21 437.505
TIGRISAT 26 Jun 01:07:20 01:11:15 28° 290° (WNW) 01:15:13 435.000
UKube-1 26 Jun 01:08:06 01:12:26 86° 74° (ENE) 01:16:45 .
UNISAT 6 26 Jun 01:11:35 01:15:17 24° 291° (WNW) 01:19:00 437.425
TISAT 1 26 Jun 01:13:51 01:16:14 15° 67° (ENE) 01:18:38 437.305
SPROUT 26 Jun 01:15:45 01:19:57 67° 76° (ENE) 01:24:11 437.525
DX 1 26 Jun 01:22:18 01:26:31 50° 260° (W) 01:30:46 434.975-435.025
SO-50 26 Jun 01:31:10 01:33:57 15° 44° (NE) 01:36:42 436.795
VELOX 1 26 Jun 01:48:08 01:51:30 21° 265° (W) 01:54:52 145.980
CUBEBUG 1 26 Jun 01:48:28 01:51:37 19° 265° (W) 01:54:46 437.445
Cosmos 2491 26 Jun 01:55:24 02:04:00 62° 91° (E) 02:12:34 435.465 / 435.565
BUGSAT 1 26 Jun 01:58:41 02:02:48 82° 104° (ESE) 02:06:55 437.445
Cosmos 2504 26 Jun 01:59:17 02:07:23 38° 74° (ENE) 02:15:11 435.465 / 435.565
JAS-2 26 Jun 02:01:09 02:06:21 37° 97° (E) 02:11:11 435.910
NANOSAT C BR1 26 Jun 02:03:36 02:07:27 35° 288° (WNW) 02:11:18 145.865
QB50P1 26 Jun 02:04:51 02:08:38 32° 288° (WNW) 02:12:26 145.935-145.965
POPSAT HIP 1 26 Jun 02:07:48 02:11:32 30° 289° (WNW) 02:15:16 437.405
ITUPSAT 1 26 Jun 02:13:34 02:16:09 15° 64° (ENE) 02:18:44 437.325
BEESAT 26 Jun 02:14:27 02:17:08 15° 64° (ENE) 02:19:51 436.000
QB50P2 26 Jun 02:19:45 02:22:59 21° 291° (WNW) 02:26:13 145.880/145.840
POLYITAN 1 26 Jun 02:22:23 02:25:36 21° 291° (WNW) 02:28:49 437.675
Oscar 19 26 Jun 02:24:34 02:28:29 22° 95° (E) 02:32:23 437.125/150
DUCHIFAT 1 26 Jun 02:26:14 02:29:26 21° 291° (WNW) 02:32:38 145.980
YUBILEINY 26 Jun 02:47:26 02:55:19 38° 274° (W) 03:03:13 435.215
TISAT 1 26 Jun 02:47:38 02:51:32 39° 261° (W) 02:55:28 437.305
SO-50 26 Jun 03:10:18 03:14:54 64° 243° (WSW) 03:19:20 436.795
SWISSCUBE 26 Jun 03:23:57 03:28:44 90° 99° (E) 03:33:34 437.505
BEESAT 3 26 Jun 03:31:56 03:34:56 21° 111° (ESE) 03:37:56 437.485
O/OREOS (USA 219) 26 Jun 03:36:52 03:40:28 24° 102° (ESE) 03:44:04 437.305
PCSat 26 Jun 03:40:23 03:45:44 64° 114° (ESE) 03:51:06 145.827
JAS-2 26 Jun 03:46:42 03:51:12 24° 296° (WNW) 03:55:24 435.910
ITUPSAT 1 26 Jun 03:48:47 03:53:28 56° 259° (W) 03:58:13 437.325
BEESAT 26 Jun 03:49:47 03:54:26 53° 260° (W) 03:59:08 436.000
KKS-1 26 Jun 03:51:10 03:54:00 17° 66° (ENE) 03:56:49 437.445
Cosmos 2504 26 Jun 03:52:32 04:00:49 45° 272° (W) 04:08:47 435.465 / 435.565
Cosmos 2491 26 Jun 03:54:20 04:01:21 26° 290° (WNW) 04:08:24 435.465 / 435.565
Gurwin Techsat 1B 26 Jun 03:55:54 04:01:15 75° 103° (ESE) 04:06:33 435.225
Oscar 19 26 Jun 04:03:10 04:07:53 39° 290° (WNW) 04:12:36 437.125/150
BEESAT 2 26 Jun 04:03:31 04:06:50 26° 113° (ESE) 04:10:10 435.950
ITAMSAT 1 26 Jun 04:18:57 04:23:54 42° 99° (E) 04:28:49 435.822/435.867
STARS 26 Jun 04:30:44 04:34:06 22° 68° (ENE) 04:37:29 437.465
AO-7 26 Jun 04:48:44 04:56:14 35° 98° (E) 05:03:39 29.400- 29.500
MOZHAYETS 4 26 Jun 04:54:45 04:59:21 74° 76° (ENE) 05:03:59
BEESAT 3 26 Jun 05:09:03 05:12:27 28° 307° (NW) 05:15:52 437.485
O/OREOS (USA 219) 26 Jun 05:15:51 05:19:43 28° 298° (WNW) 05:23:35 437.305
AIST 1 26 Jun 05:19:13 05:23:05 33° 78° (ENE) 05:26:56
PCSat 26 Jun 05:25:53 05:29:35 18° 311° (NW) 05:33:18 145.827
KKS-1 26 Jun 05:26:04 05:30:13 40° 261° (W) 05:34:23 437.445
Gurwin Techsat 1B 26 Jun 05:38:06 05:40:30 13° 298° (WNW) 05:42:55 435.225
BEESAT 2 26 Jun 05:41:22 05:44:36 24° 308° (NW) 05:47:52 435.950
ITAMSAT 1 26 Jun 05:59:08 06:03:03 22° 294° (WNW) 06:06:59 435.822/435.867
AIST 2 26 Jun 05:59:12 06:02:33 25° 112° (ESE) 06:05:56 435.215
STARS 26 Jun 06:06:32 06:10:17 28° 263° (W) 06:14:05 437.465
CUBESAT XI-V 26 Jun 06:14:31 06:19:09 59° 75° (ENE) 06:23:46 437.345
